{"data":{"norad_id":62646,"epoch":"2026-09-19T11:30:42.043392Z","epoch_age_seconds":102574,"freshness":"FRESH","line1":"1 62646U 25009AP  26262.47965328  .00007099  00000+0  23870-3 0  9999","line2":"2 62646  97.3956 344.2198 0001404  22.4193 337.7109 15.31119644 93340","mean_motion":15.31119644,"eccentricity":0.0001404,"inclination_deg":97.3956,"raan_deg":344.2198,"arg_perigee_deg":22.4193,"mean_anomaly_deg":337.7109,"bstar":0.0002387,"rev_number":9334,"period_min":94.048822745037,"perigee_km":471.50872739217,"apogee_km":473.43237799297,"semimajor_km":6850.6075526926,"source":"CELESTRAK","updated_at":"2026-09-20T09:00:34.720105Z"}}